W1RCP Weather Reports


time (UTC)temp
C
wind
direction
speed
KPH
gust
KPH
rain 1hr
cm
rain 24hr
cm
rain mn
cm
humidity
%
barometer
mb
20260506195020 31 215 1.6 6.4 0.00 0.00 0.00 41 1026.1
20260506194518 31 231 6.4 9.7 0.00 0.00 0.00 40 1026.2
20260506194014 31 211 6.4 9.7 0.00 0.00 0.00 41 1026.0
20260506193512 31 198 4.8 9.7 0.00 0.00 0.00 39 1026.1
20260506193009 31 206 3.2 9.7 0.00 0.00 0.00 39 1026.1
20260506192505 31 243 9.7 16.1 0.00 0.00 0.00 39 1026.1
20260506192001 31 278 8.0 11.3 0.00 0.00 0.00 40 1026.3
20260506191458 31 215 1.6 3.2 0.00 0.00 0.00 40 1026.0
20260506190954 31 224 6.4 11.3 0.00 0.00 0.00 40 1026.2
20260506190451 31 232 6.4 14.5 0.00 0.00 0.00 39 1026.3
20260506185948 31 230 6.4 14.5 0.00 0.00 0.00 38 1026.3
20260506185446 31 215 6.4 11.3 0.00 0.00 0.00 41 1026.4
20260506184942 31 211 0.0 6.4 0.00 0.00 0.00 41 1026.2
20260506184439 31 221 8.0 12.9 0.00 0.00 0.00 41 1026.3
20260506183936 31 197 4.8 9.7 0.00 0.00 0.00 41 1026.5
20260506183432 30 212 1.6 12.9 0.00 0.00 0.00 41 1026.5
20260506182929 31 246 6.4 9.7 0.00 0.00 0.00 40 1026.5
20260506182426 30 212 3.2 4.8 0.00 0.00 0.00 41 1026.6
20260506181924 31 229 6.4 12.9 0.00 0.00 0.00 41 1026.6
20260506181422 30 246 6.4 12.9 0.00 0.00 0.00 43 1026.8
20260506180918 30 231 8.0 14.5 0.00 0.00 0.00 43 1026.8
20260506180414 30 243 8.0 11.3 0.00 0.00 0.00 41 1026.8
20260506175911 31 241 6.4 9.7 0.00 0.00 0.00 42 1026.8
20260506175408 30 223 4.8 6.4 0.00 0.00 0.00 43 1027.0
20260506174905 30 236 1.6 11.3 0.00 0.00 0.00 42 1026.9
20260506174403 30 210 4.8 6.4 0.00 0.00 0.00 45 1026.9
20260506173859 30 214 9.7 9.7 0.00 0.00 0.00 46 1027.0
20260506173356 30 203 11.3 12.9 0.00 0.00 0.00 45 1027.1
20260506172853 30 228 4.8 12.9 0.00 0.00 0.00 46 1027.2
20260506172350 30 212 4.8 11.3 0.00 0.00 0.00 44 1027.3
20260506171847 30 245 8.0 11.3 0.00 0.00 0.00 44 1027.3
20260506171344 29 269 6.4 9.7 0.00 0.00 0.00 45 1027.4
20260506170842 30 250 6.4 11.3 0.00 0.00 0.00 45 1027.5
20260506170338 29 235 1.6 14.5 0.00 0.00 0.00 46 1027.5
20260506165837 29 205 1.6 4.8 0.00 0.00 0.00 48 1027.6
20260506165335 29 213 6.4 12.9 0.00 0.00 0.00 48 1027.6
20260506164831 29 220 1.6 14.5 0.00 0.00 0.00 49 1027.5
20260506164328 29 213 3.2 11.3 0.00 0.00 0.00 48 1027.7
20260506163825 28 231 1.6 12.9 0.00 0.00 0.00 49 1027.6
20260506163320 29 206 3.2 12.9 0.00 0.00 0.00 49 1027.5
20260506162815 28 205 1.6 9.7 0.00 0.00 0.00 50 1027.7
20260506162313 28 215 8.0 9.7 0.00 0.00 0.00 49 1027.7
20260506161810 28 213 3.2 4.8 0.00 0.00 0.00 52 1027.8
20260506161308 28 200 4.8 9.7 0.00 0.00 0.00 53 1027.9
20260506160806 28 213 4.8 9.7 0.00 0.00 0.00 52 1027.9
20260506160302 28 210 4.8 14.5 0.00 0.00 0.00 53 1027.8
20260506155801 28 209 4.8 11.3 0.00 0.00 0.00 54 1027.8
20260506155257 28 207 3.2 4.8 0.00 0.00 0.00 52 1027.9
20260506153404 27 230 9.7 12.9 0.00 0.00 0.00 55 1027.9
20260506152901 27 240 6.4 6.4 0.00 0.00 0.00 56 1028.1
20260506152358 27 219 1.6 4.8 0.00 0.00 0.00 59 1027.9
20260506151856 27 207 3.2 9.7 0.00 0.00 0.00 56 1027.8
20260506151353 27 192 3.2 4.8 0.00 0.00 0.00 57 1027.8
20260506150851 27 240 3.2 11.3 0.00 0.00 0.00 59 1027.7
20260506150347 27 194 6.4 6.4 0.00 0.00 0.00 59 1027.8
20260506145844 27 236 4.8 6.4 0.00 0.00 0.00 60 1027.7
20260506145340 26 233 4.8 12.9 0.00 0.00 0.00 62 1027.5
20260506144838 26 229 3.2 11.3 0.00 0.00 0.00 62 1027.7
20260506144334 26 186 6.4 9.7 0.00 0.00 0.00 62 1027.5
20260506143833 26 193 6.4 14.5 0.00 0.00 0.00 63 1027.3
20260506143329 26 202 4.8 11.3 0.00 0.00 0.00 65 1027.5
20260506142828 25 209 1.6 6.4 0.00 0.00 0.00 66 1027.5
20260506142325 25 232 6.4 12.9 0.00 0.00 0.00 66 1027.3
20260506141823 25 223 6.4 11.3 0.00 0.00 0.00 65 1027.6
20260506141321 25 233 3.2 11.3 0.00 0.00 0.00 69 1027.3
20260506140819 25 196 3.2 6.4 0.00 0.00 0.00 68 1027.0
20260506140315 25 251 6.4 11.3 0.00 0.00 0.00 68 1027.1
20260506135813 25 211 6.4 9.7 0.00 0.00 0.00 70 1026.9
20260506135309 25 213 3.2 9.7 0.00 0.00 0.00 70 1027.0
20260506134805 25 206 3.2 6.4 0.00 0.00 0.00 72 1027.1
20260506134302 25 174 1.6 6.4 0.00 0.00 0.00 72 1027.2
20260506133759 24 209 1.6 4.8 0.00 0.00 0.00 73 1027.0
20260506133256 24 197 6.4 6.4 0.00 0.00 0.00 74 1027.1
20260506132752 23 192 4.8 12.9 0.00 0.00 0.00 75 1026.9
20260506132250 23 200 4.8 6.4 0.00 0.00 0.00 77 1027.0
20260506131748 23 201 3.2 6.4 0.00 0.00 0.00 78 1026.8
20260506131243 23 192 3.2 4.8 0.00 0.00 0.00 81 1026.9
20260506130740 22 214 6.4 9.7 0.00 0.00 0.00 81 1026.7
20260506130237 22 206 9.7 14.5 0.00 0.00 0.00 81 1026.7
20260506125735 22 255 6.4 12.9 0.00 0.00 0.00 83 1026.6
20260506125233 22 181 4.8 11.3 0.00 0.00 0.00 83 1026.7
20260506124731 22 201 1.6 4.8 0.00 0.00 0.00 85 1026.6
20260506124229 21 213 3.2 9.7 0.00 0.00 0.00 85 1026.7
20260506123726 21 198 1.6 4.8 0.00 0.00 0.00 87 1026.6
20260506123224 21 204 4.8 4.8 0.00 0.00 0.00 87 1026.7
20260506122721 21 202 3.2 3.2 0.00 0.00 0.00 88 1026.8
20260506122218 21 203 3.2 4.8 0.00 0.00 0.00 88 1026.7
20260506121716 21 204 1.6 6.4 0.00 0.00 0.00 90 1026.6
20260506121212 20 198 1.6 3.2 0.00 0.00 0.00 91 1026.5
20260506120710 20 204 3.2 4.8 0.00 0.00 0.00 92 1026.6
20260506120208 20 210 3.2 3.2 0.00 0.00 0.00 93 1026.3
20260506115706 20 198 1.6 4.8 0.00 0.00 0.00 94 1026.4
20260506115203 19 196 1.6 3.2 0.00 0.00 0.00 95 1026.4
20260506114701 19 202 1.6 6.4 0.00 0.00 0.00 96 1026.2
20260506114158 19 199 0.0 4.8 0.00 0.00 0.00 96 1026.3
20260506113657 19 204 4.8 6.4 0.00 0.00 0.00 96 1026.2
20260506113154 19 204 4.8 6.4 0.00 0.00 0.00 97 1026.1
20260506112649 19 193 1.6 4.8 0.00 0.00 0.00 97 1026.0
20260506112147 18 172 1.6 3.2 0.00 0.00 0.00 97 1026.0
20260506111645 18 205 1.6 3.2 0.00 0.00 0.00 97 1025.8
20260506111142 18 204 4.8 4.8 0.00 0.00 0.00 97 1025.6
20260506110639 18 200 1.6 4.8 0.00 0.00 0.00 97 1025.8
20260506110137 18 201 0.0 4.8 0.00 0.00 0.00 97 1025.8
20260506105633 18 205 1.6 6.4 0.00 0.00 0.00 97 1025.8
20260506105130 18 195 0.0 3.2 0.00 0.00 0.00 97 1025.6
20260506104629 18 208 1.6 4.8 0.00 0.00 0.00 97 1025.3
20260506104126 18 200 1.6 3.2 0.00 0.00 0.00 97 1025.4
20260506103623 18 207 0.0 3.2 0.00 0.00 0.00 97 1025.6
20260506103119 18 208 1.6 3.2 0.00 0.00 0.00 97 1025.4
20260506102618 18 194 1.6 3.2 0.00 0.00 0.00 97 1025.4
20260506102115 18 201 1.6 4.8 0.00 0.00 0.00 97 1025.3
20260506101612 18 194 1.6 11.3 0.00 0.00 0.00 97 1025.4
20260506101108 18 195 0.0 1.6 0.00 0.00 0.00 97 1025.4
20260506100607 18 189 3.2 4.8 0.00 0.00 0.00 97 1025.8
20260506100105 18 203 3.2 3.2 0.00 0.00 0.00 97 1025.6
20260506095603 18 190 3.2 6.4 0.00 0.00 0.00 97 1025.6
20260506095059 18 180 1.6 1.6 0.00 0.00 0.00 97 1025.8
20260506094557 17 208 3.2 4.8 0.00 0.00 0.00 97 1025.8
20260506094055 17 201 1.6 1.6 0.00 0.00 0.00 97 1025.6
20260506093553 17 200 1.6 4.8 0.00 0.00 0.00 97 1025.8
20260506093050 17 195 0.0 0.0 0.00 0.00 0.00 97 1025.8
20260506092548 17 195 0.0 1.6 0.00 0.00 0.00 96 1025.7
20260506092045 17 195 0.0 1.6 0.00 0.00 0.00 96 1025.6
20260506091543 17 196 0.0 1.6 0.00 0.00 0.00 96 1025.6
20260506091039 17 202 1.6 1.6 0.00 0.00 0.00 96 1025.6
20260506090538 17 203 0.0 1.6 0.00 0.00 0.00 96 1025.4
20260506090033 17 203 1.6 3.2 0.00 0.00 0.00 96 1025.4
20260506085531 16 202 0.0 1.6 0.00 0.00 0.00 96 1025.4
20260506085027 16 202 0.0 0.0 0.00 0.00 0.00 96 1025.4
20260506084525 16 202 0.0 0.0 0.00 0.00 0.00 96 1025.4
20260506084020 16 202 0.0 0.0 0.00 0.00 0.00 95 1025.3
20260506083517 16 202 0.0 0.0 0.00 0.00 0.00 95 1025.5
20260506083015 16 202 0.0 0.0 0.00 0.00 0.00 95 1025.5
20260506082511 16 213 0.0 0.0 0.00 0.00 0.00 95 1025.3
20260506082007 16 213 0.0 0.0 0.00 0.00 0.00 95 1025.6
20260506081506 16 213 0.0 0.0 0.00 0.00 0.00 95 1025.3
20260506081003 16 213 0.0 0.0 0.00 0.00 0.00 94 1025.5
20260506080500 16 213 0.0 0.0 0.00 0.00 0.00 94 1025.7
20260506073443 17 213 0.0 0.0 0.00 0.00 0.00 91 1025.7
20260506072941 17 213 0.0 0.0 0.00 0.00 0.00 91 1025.6
20260506072438 17 213 0.0 0.0 0.00 0.00 0.00 91 1025.4
20260506071936 17 213 0.0 0.0 0.00 0.00 0.00 89 1025.3
20260506071433 18 213 0.0 0.0 0.00 0.00 0.00 89 1025.4
20260506070930 18 213 1.6 3.2 0.00 0.00 0.00 89 1025.5
20260506070427 17 213 0.0 1.6 0.00 0.00 0.00 90 1025.4
20260506062404 17 203 0.0 0.0 0.00 0.00 0.00 88 1025.7
20260506061900 17 203 0.0 0.0 0.00 0.00 0.00 88 1025.8
20260506061357 17 203 0.0 0.0 0.00 0.00 0.00 87 1025.9
20260506060855 17 203 0.0 0.0 0.00 0.00 0.00 87 1025.9
20260506060352 17 203 0.0 0.0 0.00 0.00 0.00 86 1025.8
20260506051325 18 204 0.0 0.0 0.00 0.00 0.00 81 1026.3
20260506050823 18 204 0.0 0.0 0.00 0.00 0.00 81 1026.4
20260506050320 18 204 0.0 0.0 0.00 0.00 0.00 81 1026.3
20260506044810 18 204 0.0 0.0 0.00 0.00 0.00 79 1026.5
20260506044308 18 204 0.0 0.0 0.00 0.00 0.00 79 1026.5
20260506043804 18 204 0.0 1.6 0.00 0.00 0.00 79 1026.4
20260506043302 18 204 0.0 0.0 0.00 0.00 0.00 78 1026.5
20260506042801 18 204 0.0 0.0 0.00 0.00 0.00 77 1026.4
20260506042259 18 204 0.0 0.0 0.00 0.00 0.00 77 1026.5
20260506041757 18 204 0.0 0.0 0.00 0.00 0.00 76 1026.5
20260506041253 18 204 0.0 0.0 0.00 0.00 0.00 76 1026.5
20260506040751 19 204 0.0 0.0 0.00 0.00 0.00 75 1026.5
20260506040248 18 204 0.0 1.6 0.00 0.00 0.00 75 1026.4
20260506035745 18 204 0.0 1.6 0.00 0.00 0.00 75 1026.5
20260506035242 18 204 0.0 0.0 0.00 0.00 0.00 75 1026.7
20260506034738 19 204 0.0 0.0 0.00 0.00 0.00 74 1026.5
20260506034235 20 204 0.0 0.0 0.00 0.00 0.00 73 1026.4
20260506033733 20 204 0.0 1.6 0.00 0.00 0.00 72 1026.3
20260506033230 20 204 1.6 1.6 0.00 0.00 0.00 72 1026.4
20260506032727 20 204 0.0 1.6 0.00 0.00 0.00 72 1026.1
20260506032224 19 204 0.0 0.0 0.00 0.00 0.00 73 1026.3
20260506031720 19 204 0.0 0.0 0.00 0.00 0.00 73 1026.3
20260506031218 18 204 0.0 1.6 0.00 0.00 0.00 74 1026.4
20260506030716 18 204 0.0 0.0 0.00 0.00 0.00 74 1026.5
20260506030213 18 204 0.0 0.0 0.00 0.00 0.00 74 1026.4
20260506025710 19 204 0.0 0.0 0.00 0.00 0.00 72 1026.6
20260506025206 19 204 0.0 0.0 0.00 0.00 0.00 72 1026.5
20260506024703 19 204 0.0 0.0 0.00 0.00 0.00 71 1026.3
20260506024159 20 204 0.0 0.0 0.00 0.00 0.00 70 1026.2
20260506023656 20 204 0.0 0.0 0.00 0.00 0.00 70 1026.2
20260506023153 20 204 0.0 0.0 0.00 0.00 0.00 70 1026.0
20260506022650 20 204 0.0 0.0 0.00 0.00 0.00 67 1026.2
20260506022148 21 204 0.0 0.0 0.00 0.00 0.00 65 1026.1
20260506021646 21 204 0.0 0.0 0.00 0.00 0.00 64 1026.2
20260506021142 21 204 0.0 0.0 0.00 0.00 0.00 64 1026.1
20260506020639 21 204 0.0 0.0 0.00 0.00 0.00 65 1026.1
20260506020137 21 204 0.0 0.0 0.00 0.00 0.00 65 1026.0
20260506015634 21 204 0.0 0.0 0.00 0.00 0.00 65 1025.8
20260506015131 21 204 0.0 0.0 0.00 0.00 0.00 65 1025.8
20260506014629 21 204 0.0 0.0 0.00 0.00 0.00 64 1025.9
20260506014124 22 204 0.0 0.0 0.00 0.00 0.00 62 1025.7
20260506013623 22 204 0.0 0.0 0.00 0.00 0.00 60 1025.6
20260506013119 22 204 1.6 1.6 0.00 0.00 0.00 59 1025.6
20260506012616 22 204 0.0 1.6 0.00 0.00 0.00 58 1025.7
20260506012112 22 204 3.2 1.6 0.00 0.00 0.00 58 1025.7
20260506011610 22 204 0.0 1.6 0.00 0.00 0.00 58 1025.5
20260506011106 23 204 0.0 0.0 0.00 0.00 0.00 57 1025.3
20260506010606 23 204 0.0 0.0 0.00 0.00 0.00 57 1025.3
20260506005559 23 204 1.6 1.6 0.00 0.00 0.00 54 1025.6
20260506005055 24 204 1.6 3.2 0.00 0.00 0.00 54 1025.5
20260506004552 24 204 0.0 1.6 0.00 0.00 0.00 53 1025.3
20260506004049 24 204 1.6 1.6 0.00 0.00 0.00 52 1025.3
20260506003545 24 205 1.6 3.2 0.00 0.00 0.00 52 1025.3
20260506003042 25 205 3.2 4.8 0.00 0.00 0.00 51 1025.3
20260506002537 25 203 0.0 1.6 0.00 0.00 0.00 50 1025.1
20260506002033 25 206 1.6 3.2 0.00 0.00 0.00 49 1025.0
20260506001530 25 203 1.6 3.2 0.00 0.00 0.00 48 1024.8
20260506001027 25 202 1.6 4.8 0.00 0.00 0.00 47 1024.8
20260506000525 26 196 1.6 6.4 0.00 0.00 0.00 47 1024.8
20260506000022 26 203 4.8 4.8 0.00 0.00 0.00 46 1024.9
20260505235520 26 193 3.2 11.3 0.00 0.00 0.00 45 1024.8
20260505235016 26 205 1.6 6.4 0.00 0.00 0.00 44 1024.7
20260505234514 27 198 3.2 6.4 0.00 0.00 0.00 42 1024.9
20260505234010 27 200 1.6 3.2 0.00 0.00 0.00 41 1024.7
20260505233508 27 198 1.6 4.8 0.00 0.00 0.00 41 1024.8
20260505233005 27 204 0.0 1.6 0.00 0.00 0.00 41 1024.8
20260505232503 27 207 3.2 4.8 0.00 0.00 0.00 40 1024.6
20260505232000 27 197 3.2 6.4 0.00 0.00 0.00 40 1024.7
20260505231457 28 197 3.2 6.4 0.00 0.00 0.00 39 1024.9
20260505230955 28 213 1.6 4.8 0.00 0.00 0.00 40 1024.7
20260505230453 28 207 3.2 6.4 0.00 0.00 0.00 39 1024.6
20260505225949 28 236 4.8 11.3 0.00 0.00 0.00 38 1024.6
20260505225446 28 190 3.2 6.4 0.00 0.00 0.00 38 1024.6
20260505224942 28 207 3.2 4.8 0.00 0.00 0.00 38 1024.6
20260505224439 28 237 6.4 6.4 0.00 0.00 0.00 38 1024.6
20260505223936 28 197 1.6 11.3 0.00 0.00 0.00 38 1024.8
20260505223433 28 219 1.6 9.7 0.00 0.00 0.00 37 1024.7
20260505222929 28 203 6.4 9.7 0.00 0.00 0.00 37 1024.7
20260505222426 28 226 4.8 6.4 0.00 0.00 0.00 36 1024.6
20260505221922 29 198 6.4 11.3 0.00 0.00 0.00 36 1024.7
20260505221419 28 185 3.2 3.2 0.00 0.00 0.00 37 1024.7
20260505220916 28 215 1.6 11.3 0.00 0.00 0.00 38 1024.8
20260505220413 28 198 8.0 12.9 0.00 0.00 0.00 37 1024.8
20260505215911 28 209 6.4 6.4 0.00 0.00 0.00 36 1024.7
20260505215409 28 185 4.8 12.9 0.00 0.00 0.00 37 1024.8
20260505214907 28 215 6.4 9.7 0.00 0.00 0.00 37 1024.9
20260505214404 28 222 3.2 14.5 0.00 0.00 0.00 37 1024.9
20260505213901 29 232 3.2 20.9 0.00 0.00 0.00 36 1025.0
20260505213359 29 208 3.2 6.4 0.00 0.00 0.00 36 1024.8
20260505212854 29 247 4.8 6.4 0.00 0.00 0.00 34 1024.8
20260505212352 30 204 3.2 9.7 0.00 0.00 0.00 35 1024.8
20260505211848 29 210 3.2 6.4 0.00 0.00 0.00 35 1024.7
20260505211346 30 266 3.2 9.7 0.00 0.00 0.00 34 1024.6
20260505210842 28 200 3.2 3.2 0.00 0.00 0.00 34 1024.6
20260505210339 28 273 9.7 12.9 0.00 0.00 0.00 35 1024.8
20260505205835 28 217 3.2 4.8 0.00 0.00 0.00 38 1025.0
20260505205334 29 216 9.7 11.3 0.00 0.00 0.00 37 1025.0
20260505204830 29 218 3.2 3.2 0.00 0.00 0.00 36 1024.9
20260505204328 28 229 3.2 6.4 0.00 0.00 0.00 36 1025.0
20260505203826 28 241 6.4 9.7 0.00 0.00 0.00 36 1025.0
20260505203322 29 228 6.4 9.7 0.00 0.00 0.00 36 1025.1
20260505202818 29 212 4.8 9.7 0.00 0.00 0.00 36 1025.1
20260505202314 29 225 1.6 12.9 0.00 0.00 0.00 36 1025.3
20260505201811 29 244 4.8 11.3 0.00 0.00 0.00 36 1025.4
20260505201308 28 198 1.6 9.7 0.00 0.00 0.00 38 1025.6
20260505200807 28 244 3.2 11.3 0.00 0.00 0.00 37 1025.5
20260505200304 29 235 4.8 12.9 0.00 0.00 0.00 36 1025.6
20260505195759 28 215 6.4 6.4 0.00 0.00 0.00 36 1025.7